Location: Unspecified
(43.4000°N, 0.0000°E)
Time: 23:12:11
(UTC+00:00)

NOAA 19 - Pass Details

Date: 24 August 2019
Orbit: 841 x 861 km, 99.2° (Epoch: 23 October)

Event Time Altitude Azimuth Distance (km) Brightness Sun altitude
Rises 03:53:20 0° 36° (NE) 3,423 9.7 -14.3°
Reaches altitude 10° 03:57:36 10° 68° (ENE) 2,474 9.1 -13.7°
Maximum altitude 03:59:28 12° 88° (E) 2,350 8.5 -13.4°
Drops below altitude 10° 04:01:20 10° 108° (ESE) 2,464 8.2 -13.1°
Sets 04:05:32 0° 140° (SE) 3,388 8.5 -12.4°
